| time (UTC) | temp F | wind direction | speed MPH | gust MPH | rain 1hr in | rain 24hr in | rain mn in | humidity % | barometer mb |
| 20260906043013 | 73 | 173 | 1.0 | 2.0 | 0.00 | 0.00 | 0.00 | 41 | 1005.2 |
| 20260906041504 | 73 | 173 | 1.0 | 2.0 | 0.00 | 0.00 | 0.00 | 41 | 1005.1 |
| 20260906040003 | 73 | 173 | 1.0 | 3.0 | 0.00 | 0.00 | 0.00 | 40 | 1005.0 |
| 20260906034502 | 74 | 173 | 1.0 | 2.0 | 0.00 | 0.00 | 0.00 | 39 | 1004.9 |
| 20260906033108 | 74 | 173 | 1.0 | 3.0 | 0.00 | 0.00 | 0.00 | 38 | 1004.8 |
| 20260906031601 | 75 | 173 | 1.0 | 3.0 | 0.00 | 0.00 | 0.00 | 37 | 1004.6 |
| 20260906024613 | 78 | 174 | 2.0 | 3.0 | 0.00 | 0.00 | 0.00 | 31 | 1004.5 |
| 20260906023104 | 80 | 179 | 0.0 | 1.0 | 0.00 | 0.00 | 0.00 | 28 | 1004.5 |
| 20260906021559 | 81 | 180 | 0.0 | 4.0 | 0.00 | 0.00 | 0.00 | 28 | 1004.4 |
| 20260906020058 | 82 | 174 | 1.0 | 6.0 | 0.00 | 0.00 | 0.00 | 28 | 1004.3 |
| 20260906014557 | 84 | 188 | 1.0 | 6.0 | 0.00 | 0.00 | 0.00 | 26 | 1004.1 |
| 20260906013101 | 84 | 186 | 2.0 | 9.0 | 0.00 | 0.00 | 0.00 | 27 | 1004.1 |
| 20260906011556 | 86 | 208 | 3.0 | 9.0 | 0.00 | 0.00 | 0.00 | 28 | 1004.1 |
| 20260906010055 | 85 | 184 | 3.0 | 8.0 | 0.00 | 0.00 | 0.00 | 32 | 1004.2 |
| 20260906004555 | 86 | 203 | 5.0 | 9.0 | 0.00 | 0.00 | 0.00 | 29 | 1004.1 |
| 20260906003055 | 86 | 178 | 3.0 | 8.0 | 0.00 | 0.00 | 0.00 | 30 | 1004.0 |
| 20260906001554 | 87 | 185 | 4.0 | 9.0 | 0.00 | 0.00 | 0.00 | 27 | 1004.0 |
| 20260906000053 | 87 | 169 | 4.0 | 10.0 | 0.00 | 0.00 | 0.00 | 26 | 1004.0 |
| 20260905234554 | 88 | 227 | 5.0 | 9.0 | 0.00 | 0.00 | 0.00 | 25 | 1004.1 |
| 20260905233058 | 89 | 206 | 3.0 | 9.0 | 0.00 | 0.00 | 0.00 | 24 | 1004.0 |
| 20260905231550 | 88 | 213 | 4.0 | 11.0 | 0.00 | 0.00 | 0.00 | 24 | 1004.1 |
| 20260905230052 | 89 | 173 | 4.0 | 10.0 | 0.00 | 0.00 | 0.00 | 23 | 1004.1 |
| 20260905224611 | 89 | 201 | 5.0 | 10.0 | 0.00 | 0.00 | 0.00 | 21 | 1004.2 |
| 20260905223047 | 89 | 211 | 5.0 | 11.0 | 0.00 | 0.00 | 0.00 | 20 | 1004.4 |
| 20260905221544 | 89 | 148 | 5.0 | 12.0 | 0.00 | 0.00 | 0.00 | 22 | 1004.4 |
| 20260905220042 | 89 | 189 | 3.0 | 8.0 | 0.00 | 0.00 | 0.00 | 22 | 1004.6 |
| 20260905214547 | 89 | 186 | 4.0 | 8.0 | 0.00 | 0.00 | 0.00 | 22 | 1004.7 |
| 20260905213041 | 88 | 244 | 4.0 | 10.0 | 0.00 | 0.00 | 0.00 | 21 | 1004.9 |
| 20260905211544 | 88 | 177 | 3.0 | 11.0 | 0.00 | 0.00 | 0.00 | 22 | 1004.9 |
| 20260905210042 | 88 | 155 | 5.0 | 11.0 | 0.00 | 0.00 | 0.00 | 23 | 1005.1 |
| 20260905204530 | 87 | 166 | 4.0 | 10.0 | 0.00 | 0.00 | 0.00 | 24 | 1005.2 |
| 20260905203027 | 87 | 168 | 4.0 | 9.0 | 0.00 | 0.00 | 0.00 | 25 | 1005.3 |
| 20260905201523 | 86 | 180 | 3.0 | 8.0 | 0.00 | 0.00 | 0.00 | 26 | 1005.5 |
| 20260905200026 | 86 | 204 | 3.0 | 10.0 | 0.00 | 0.00 | 0.00 | 25 | 1005.7 |
| 20260905194519 | 85 | 170 | 3.0 | 9.0 | 0.00 | 0.00 | 0.00 | 27 | 1005.8 |
| 20260905193014 | 83 | 194 | 4.0 | 10.0 | 0.00 | 0.00 | 0.00 | 30 | 1006.0 |
| 20260905191511 | 83 | 178 | 3.0 | 9.0 | 0.00 | 0.00 | 0.00 | 30 | 1006.2 |
| 20260905190007 | 83 | 175 | 4.0 | 8.0 | 0.00 | 0.00 | 0.00 | 28 | 1006.5 |
| 20260905184509 | 83 | 176 | 4.0 | 8.0 | 0.00 | 0.00 | 0.00 | 30 | 1006.6 |
| 20260905183101 | 82 | 167 | 3.0 | 10.0 | 0.00 | 0.00 | 0.00 | 30 | 1006.7 |
| 20260905181556 | 80 | 227 | 3.0 | 8.0 | 0.00 | 0.00 | 0.00 | 31 | 1006.9 |
| 20260905180101 | 80 | 200 | 2.0 | 8.0 | 0.00 | 0.00 | 0.00 | 33 | 1006.8 |
| 20260905174547 | 79 | 185 | 2.0 | 7.0 | 0.00 | 0.00 | 0.00 | 34 | 1006.8 |
| 20260905173102 | 78 | 195 | 3.0 | 6.0 | 0.00 | 0.00 | 0.00 | 36 | 1006.6 |
| 20260905171541 | 77 | 213 | 1.0 | 6.0 | 0.00 | 0.00 | 0.00 | 37 | 1006.5 |
| 20260905170040 | 76 | 206 | 1.0 | 7.0 | 0.00 | 0.00 | 0.00 | 40 | 1006.4 |
| 20260905164532 | 74 | 225 | 1.0 | 5.0 | 0.00 | 0.00 | 0.00 | 43 | 1006.4 |
| 20260905163028 | 73 | 268 | 2.0 | 4.0 | 0.00 | 0.00 | 0.00 | 43 | 1006.3 |
| 20260905161523 | 72 | 164 | 1.0 | 3.0 | 0.00 | 0.00 | 0.00 | 46 | 1006.3 |
| 20260905160019 | 70 | 42 | 0.0 | 2.0 | 0.00 | 0.00 | 0.00 | 46 | 1006.3 |
| 20260905154516 | 69 | 47 | 1.0 | 3.0 | 0.00 | 0.00 | 0.00 | 45 | 1006.3 |
| 20260905153017 | 68 | 48 | 2.0 | 4.0 | 0.00 | 0.00 | 0.00 | 46 | 1006.2 |
| 20260905151518 | 66 | 36 | 2.0 | 4.0 | 0.00 | 0.00 | 0.00 | 47 | 1006.2 |
| 20260905150003 | 65 | 42 | 2.0 | 5.0 | 0.00 | 0.00 | 0.00 | 49 | 1006.1 |
| 20260905144601 | 63 | 30 | 2.0 | 5.0 | 0.00 | 0.00 | 0.00 | 50 | 1005.9 |
| 20260905143103 | 62 | 40 | 1.0 | 5.0 | 0.00 | 0.00 | 0.00 | 52 | 1005.8 |
| 20260905141600 | 61 | 20 | 2.0 | 4.0 | 0.00 | 0.00 | 0.00 | 53 | 1005.8 |
| 20260905140055 | 61 | 24 | 1.0 | 5.0 | 0.00 | 0.00 | 0.00 | 53 | 1005.5 |
| 20260905134556 | 61 | 58 | 3.0 | 6.0 | 0.00 | 0.00 | 0.00 | 54 | 1005.4 |
| 20260905133058 | 60 | 44 | 1.0 | 3.0 | 0.00 | 0.00 | 0.00 | 55 | 1005.1 |
| 20260905131554 | 60 | 347 | 1.0 | 4.0 | 0.00 | 0.00 | 0.00 | 56 | 1005.0 |
| 20260905130050 | 60 | 46 | 2.0 | 5.0 | 0.00 | 0.00 | 0.00 | 57 | 1005.0 |
| 20260905124549 | 59 | 36 | 0.0 | 3.0 | 0.00 | 0.00 | 0.00 | 62 | 1005.1 |
| 20260905123059 | 59 | 33 | 2.0 | 3.0 | 0.00 | 0.00 | 0.00 | 62 | 1005.0 |
| 20260905121553 | 60 | 39 | 1.0 | 3.0 | 0.00 | 0.00 | 0.00 | 62 | 1005.0 |
| 20260905120044 | 60 | 34 | 1.0 | 4.0 | 0.00 | 0.00 | 0.00 | 63 | 1005.0 |
| 20260905114542 | 59 | 53 | 2.0 | 3.0 | 0.00 | 0.00 | 0.00 | 67 | 1005.0 |
| 20260905113041 | 59 | 57 | 1.0 | 3.0 | 0.00 | 0.00 | 0.00 | 69 | 1005.1 |
| 20260905111540 | 59 | 58 | 1.0 | 3.0 | 0.00 | 0.00 | 0.00 | 69 | 1005.2 |
| 20260905110039 | 59 | 59 | 1.0 | 4.0 | 0.00 | 0.00 | 0.00 | 70 | 1005.1 |
| 20260905104543 | 58 | 43 | 1.0 | 3.0 | 0.00 | 0.00 | 0.00 | 74 | 1005.2 |
| 20260905103037 | 58 | 41 | 1.0 | 2.0 | 0.00 | 0.00 | 0.00 | 76 | 1005.2 |
| 20260905101537 | 59 | 43 | 1.0 | 2.0 | 0.00 | 0.00 | 0.00 | 76 | 1005.2 |
| 20260905100107 | 60 | 42 | 0.0 | 3.0 | 0.00 | 0.00 | 0.00 | 74 | 1005.1 |
| 20260905094541 | 60 | 46 | 0.0 | 2.0 | 0.00 | 0.00 | 0.00 | 74 | 1005.2 |
| 20260905093027 | 61 | 48 | 0.0 | 2.0 | 0.00 | 0.00 | 0.00 | 73 | 1005.2 |
| 20260905091525 | 61 | 49 | 0.0 | 2.0 | 0.00 | 0.00 | 0.00 | 72 | 1005.3 |
| 20260905090022 | 62 | 49 | 1.0 | 3.0 | 0.00 | 0.00 | 0.00 | 72 | 1005.3 |
| 20260905084521 | 62 | 50 | 0.0 | 2.0 | 0.00 | 0.00 | 0.00 | 72 | 1005.4 |
| 20260905083018 | 63 | 53 | 0.0 | 1.0 | 0.00 | 0.00 | 0.00 | 71 | 1005.4 |
| 20260905081518 | 64 | 51 | 1.0 | 4.0 | 0.00 | 0.00 | 0.00 | 69 | 1005.2 |
| 20260905080020 | 64 | 43 | 1.0 | 3.0 | 0.00 | 0.00 | 0.00 | 70 | 1005.4 |
| 20260905074522 | 63 | 48 | 1.0 | 3.0 | 0.00 | 0.00 | 0.00 | 71 | 1005.5 |
| 20260905073013 | 63 | 40 | 1.0 | 3.0 | 0.00 | 0.00 | 0.00 | 71 | 1005.6 |
| 20260905071511 | 63 | 65 | 1.0 | 3.0 | 0.00 | 0.00 | 0.00 | 71 | 1005.5 |
| 20260905070009 | 63 | 66 | 1.0 | 3.0 | 0.00 | 0.00 | 0.00 | 71 | 1005.4 |
| 20260905064509 | 63 | 68 | 0.0 | 3.0 | 0.00 | 0.00 | 0.00 | 71 | 1005.2 |
| 20260905063007 | 63 | 73 | 1.0 | 3.0 | 0.00 | 0.00 | 0.00 | 72 | 1005.3 |
| 20260905061506 | 63 | 73 | 0.0 | 2.0 | 0.00 | 0.00 | 0.00 | 72 | 1005.2 |
| 20260905060006 | 64 | 73 | 0.0 | 3.0 | 0.00 | 0.00 | 0.00 | 71 | 1005.4 |
| 20260905054512 | 64 | 74 | 1.0 | 3.0 | 0.00 | 0.00 | 0.00 | 71 | 1005.2 |
| 20260905053004 | 64 | 167 | 0.0 | 2.0 | 0.00 | 0.00 | 0.00 | 70 | 1005.2 |
| 20260905051508 | 64 | 169 | 1.0 | 3.0 | 0.00 | 0.00 | 0.00 | 70 | 1005.2 |
| 20260905050002 | 64 | 177 | 0.0 | 2.0 | 0.00 | 0.00 | 0.00 | 69 | 1005.1 |
| 20260905044504 | 65 | 177 | 1.0 | 2.0 | 0.00 | 0.00 | 0.00 | 70 | 1005.1 |